| time (UTC) | temp F | wind direction | speed MPH | gust MPH | rain 1hr in | rain 24hr in | rain mn in | humidity % | barometer mb |
| 20260831130101 | 84 | 232 | 13.0 | 22.0 | 0.00 | 0.00 | 0.00 | 38 | 1016.4 |
| 20260831124601 | 85 | 220 | 14.0 | 21.0 | 0.00 | 0.00 | 0.00 | 37 | 1016.5 |
| 20260831123103 | 83 | 236 | 11.0 | 21.0 | 0.00 | 0.00 | 0.00 | 39 | 1016.6 |
| 20260831121556 | 85 | 236 | 16.0 | 24.0 | 0.00 | 0.00 | 0.00 | 38 | 1016.5 |
| 20260831120056 | 84 | 234 | 13.0 | 20.0 | 0.00 | 0.00 | 0.00 | 40 | 1016.7 |
| 20260831114551 | 82 | 196 | 7.0 | 13.0 | 0.00 | 0.00 | 0.00 | 40 | 1016.8 |
| 20260831113103 | 86 | 211 | 12.0 | 20.0 | 0.00 | 0.00 | 0.00 | 38 | 1016.9 |
| 20260831111555 | 82 | 267 | 10.0 | 17.0 | 0.00 | 0.00 | 0.00 | 41 | 1016.9 |
| 20260831110107 | 84 | 246 | 15.0 | 22.0 | 0.00 | 0.00 | 0.00 | 40 | 1017.1 |
| 20260831104611 | 84 | 242 | 9.0 | 21.0 | 0.00 | 0.00 | 0.00 | 41 | 1017.2 |
| 20260831103054 | 84 | 226 | 9.0 | 20.0 | 0.00 | 0.00 | 0.00 | 40 | 1017.2 |
| 20260831101552 | 82 | 227 | 11.0 | 18.0 | 0.00 | 0.00 | 0.00 | 43 | 1017.3 |
| 20260831100108 | 83 | 251 | 11.0 | 19.0 | 0.00 | 0.00 | 0.00 | 43 | 1017.3 |
| 20260831094550 | 80 | 253 | 11.0 | 17.0 | 0.00 | 0.00 | 0.00 | 45 | 1017.4 |
| 20260831093106 | 83 | 256 | 5.0 | 12.0 | 0.00 | 0.00 | 0.00 | 47 | 1017.4 |
| 20260831091554 | 82 | 204 | 4.0 | 11.0 | 0.00 | 0.00 | 0.00 | 49 | 1017.4 |
| 20260831090051 | 82 | 221 | 3.0 | 9.0 | 0.00 | 0.00 | 0.00 | 48 | 1017.7 |
| 20260831084601 | 81 | 190 | 4.0 | 10.0 | 0.00 | 0.00 | 0.00 | 48 | 1017.8 |
| 20260831083054 | 80 | 207 | 4.0 | 9.0 | 0.00 | 0.00 | 0.00 | 50 | 1018.1 |
| 20260831081553 | 78 | 198 | 2.0 | 8.0 | 0.00 | 0.00 | 0.00 | 54 | 1018.2 |
| 20260831080107 | 77 | 190 | 4.0 | 8.0 | 0.00 | 0.00 | 0.00 | 56 | 1018.2 |
| 20260831074557 | 75 | 185 | 3.0 | 5.0 | 0.00 | 0.00 | 0.00 | 59 | 1018.3 |
| 20260831073103 | 73 | 196 | 2.0 | 5.0 | 0.00 | 0.00 | 0.00 | 63 | 1018.3 |
| 20260831071549 | 70 | 188 | 2.0 | 5.0 | 0.00 | 0.00 | 0.00 | 65 | 1018.4 |
| 20260831070114 | 68 | 132 | 1.0 | 4.0 | 0.00 | 0.00 | 0.00 | 69 | 1018.5 |
| 20260831064554 | 67 | 123 | 2.0 | 4.0 | 0.00 | 0.00 | 0.00 | 70 | 1018.7 |
| 20260831063054 | 66 | 75 | 1.0 | 3.0 | 0.00 | 0.00 | 0.00 | 70 | 1018.7 |
| 20260831061551 | 65 | 0 | 0.0 | 2.0 | 0.00 | 0.00 | 0.00 | 75 | 1018.9 |
| 20260831060103 | 62 | 0 | 0.0 | 0.0 | 0.00 | 0.00 | 0.00 | 83 | 1018.9 |
| 20260831054555 | 59 | 0 | 0.0 | 1.0 | 0.00 | 0.00 | 0.00 | 88 | 1019.0 |
| 20260831053101 | 55 | 0 | 0.0 | 0.0 | 0.00 | 0.00 | 0.00 | 89 | 1019.0 |
| 20260831051556 | 53 | 0 | 0.0 | 0.0 | 0.00 | 0.00 | 0.00 | 90 | 1018.9 |
| 20260831050056 | 51 | 0 | 0.0 | 1.0 | 0.00 | 0.00 | 0.00 | 89 | 1018.8 |
| 20260831044610 | 49 | 0 | 0.0 | 2.0 | 0.00 | 0.00 | 0.00 | 89 | 1018.8 |
| 20260831043058 | 47 | 0 | 0.0 | 2.0 | 0.00 | 0.00 | 0.00 | 89 | 1018.8 |
| 20260831041559 | 47 | 0 | 0.0 | 1.0 | 0.00 | 0.00 | 0.00 | 88 | 1018.8 |
| 20260831040052 | 47 | 292 | 0.0 | 2.0 | 0.00 | 0.00 | 0.00 | 88 | 1018.8 |
| 20260831034557 | 47 | 0 | 1.0 | 3.0 | 0.00 | 0.00 | 0.00 | 88 | 1018.8 |
| 20260831033049 | 48 | 290 | 2.0 | 4.0 | 0.00 | 0.00 | 0.00 | 88 | 1018.8 |
| 20260831031556 | 48 | 224 | 1.0 | 4.0 | 0.00 | 0.00 | 0.00 | 88 | 1018.9 |
| 20260831024548 | 49 | 0 | 0.0 | 0.0 | 0.00 | 0.00 | 0.00 | 87 | 1018.8 |
| 20260831023055 | 49 | 152 | 0.0 | 5.0 | 0.00 | 0.00 | 0.00 | 87 | 1018.9 |
| 20260831021553 | 50 | 0 | 0.0 | 5.0 | 0.00 | 0.00 | 0.00 | 88 | 1018.8 |
| 20260831020052 | 51 | 150 | 0.0 | 3.0 | 0.00 | 0.00 | 0.00 | 88 | 1018.8 |
| 20260831014602 | 50 | 150 | 2.0 | 4.0 | 0.00 | 0.00 | 0.00 | 87 | 1018.7 |
| 20260831013057 | 50 | 0 | 2.0 | 4.0 | 0.00 | 0.00 | 0.00 | 87 | 1018.8 |
| 20260831011615 | 50 | 302 | 0.0 | 3.0 | 0.00 | 0.00 | 0.00 | 87 | 1018.7 |
| 20260831010058 | 50 | 302 | 0.0 | 4.0 | 0.00 | 0.00 | 0.00 | 86 | 1018.8 |
| 20260831004606 | 50 | 311 | 2.0 | 4.0 | 0.00 | 0.00 | 0.00 | 86 | 1018.8 |
| 20260831003104 | 51 | 298 | 3.0 | 4.0 | 0.00 | 0.00 | 0.00 | 86 | 1018.9 |
| 20260831001606 | 51 | 295 | 3.0 | 4.0 | 0.00 | 0.00 | 0.00 | 85 | 1019.0 |
| 20260831000058 | 52 | 340 | 0.0 | 3.0 | 0.00 | 0.00 | 0.00 | 85 | 1019.0 |
| 20260830234555 | 53 | 0 | 0.0 | 2.0 | 0.00 | 0.00 | 0.00 | 85 | 1018.8 |
| 20260830233055 | 54 | 352 | 1.0 | 4.0 | 0.00 | 0.00 | 0.00 | 85 | 1018.9 |
| 20260830231608 | 53 | 323 | 1.0 | 3.0 | 0.00 | 0.00 | 0.00 | 86 | 1019.0 |
| 20260830230057 | 53 | 321 | 2.0 | 5.0 | 0.00 | 0.00 | 0.00 | 86 | 1019.2 |
| 20260830224608 | 52 | 308 | 2.0 | 4.0 | 0.00 | 0.00 | 0.00 | 85 | 1019.2 |
| 20260830223054 | 53 | 319 | 1.0 | 4.0 | 0.00 | 0.00 | 0.00 | 85 | 1019.0 |
| 20260830221548 | 53 | 307 | 2.0 | 4.0 | 0.00 | 0.00 | 0.00 | 85 | 1018.9 |
| 20260830214604 | 54 | 302 | 1.0 | 4.0 | 0.00 | 0.00 | 0.00 | 85 | 1019.2 |
| 20260830213053 | 54 | 302 | 1.0 | 4.0 | 0.00 | 0.00 | 0.00 | 86 | 1018.9 |
| 20260830204559 | 54 | 0 | 0.0 | 3.0 | 0.00 | 0.00 | 0.00 | 84 | 1018.9 |
| 20260830203056 | 54 | 301 | 0.0 | 2.0 | 0.00 | 0.00 | 0.00 | 83 | 1018.8 |
| 20260830201552 | 55 | 301 | 1.0 | 3.0 | 0.00 | 0.00 | 0.00 | 83 | 1018.7 |
| 20260830200050 | 55 | 301 | 1.0 | 2.0 | 0.00 | 0.00 | 0.00 | 82 | 1018.9 |
| 20260830194601 | 56 | 301 | 1.0 | 3.0 | 0.00 | 0.00 | 0.00 | 81 | 1018.7 |
| 20260830193055 | 57 | 301 | 2.0 | 3.0 | 0.00 | 0.00 | 0.00 | 79 | 1018.6 |
| 20260830191551 | 58 | 301 | 2.0 | 3.0 | 0.00 | 0.00 | 0.00 | 78 | 1018.7 |
| 20260830190051 | 59 | 0 | 0.0 | 3.0 | 0.00 | 0.00 | 0.00 | 76 | 1018.6 |
| 20260830184559 | 61 | 301 | 1.0 | 5.0 | 0.00 | 0.00 | 0.00 | 75 | 1018.4 |
| 20260830183054 | 62 | 327 | 2.0 | 7.0 | 0.00 | 0.00 | 0.00 | 75 | 1018.4 |
| 20260830181551 | 61 | 310 | 3.0 | 5.0 | 0.00 | 0.00 | 0.00 | 76 | 1018.2 |
| 20260830180103 | 63 | 267 | 2.0 | 4.0 | 0.00 | 0.00 | 0.00 | 73 | 1018.1 |
| 20260830174556 | 65 | 0 | 0.0 | 1.0 | 0.00 | 0.00 | 0.00 | 70 | 1017.9 |
| 20260830173053 | 68 | 267 | 0.0 | 4.0 | 0.00 | 0.00 | 0.00 | 68 | 1017.8 |
| 20260830171557 | 71 | 262 | 3.0 | 4.0 | 0.00 | 0.00 | 0.00 | 64 | 1017.7 |
| 20260830170101 | 73 | 0 | 0.0 | 2.0 | 0.00 | 0.00 | 0.00 | 58 | 1017.6 |
| 20260830164601 | 74 | 261 | 1.0 | 3.0 | 0.00 | 0.00 | 0.00 | 56 | 1017.5 |
| 20260830163100 | 75 | 261 | 3.0 | 7.0 | 0.00 | 0.00 | 0.00 | 53 | 1017.4 |
| 20260830161600 | 76 | 254 | 6.0 | 10.0 | 0.00 | 0.00 | 0.00 | 49 | 1017.5 |
| 20260830160053 | 78 | 257 | 7.0 | 10.0 | 0.00 | 0.00 | 0.00 | 48 | 1017.4 |
| 20260830154601 | 79 | 257 | 5.0 | 11.0 | 0.00 | 0.00 | 0.00 | 47 | 1017.3 |
| 20260830153059 | 79 | 261 | 8.0 | 14.0 | 0.00 | 0.00 | 0.00 | 45 | 1017.4 |
| 20260830151608 | 80 | 259 | 8.0 | 13.0 | 0.00 | 0.00 | 0.00 | 45 | 1017.5 |
| 20260830150055 | 80 | 250 | 10.0 | 13.0 | 0.00 | 0.00 | 0.00 | 44 | 1017.5 |
| 20260830144552 | 80 | 252 | 10.0 | 14.0 | 0.00 | 0.00 | 0.00 | 40 | 1017.4 |
| 20260830143110 | 80 | 250 | 11.0 | 16.0 | 0.00 | 0.00 | 0.00 | 42 | 1017.7 |
| 20260830141551 | 80 | 265 | 11.0 | 16.0 | 0.00 | 0.00 | 0.00 | 42 | 1017.7 |
| 20260830140051 | 81 | 257 | 8.0 | 16.0 | 0.00 | 0.00 | 0.00 | 41 | 1017.6 |
| 20260830134555 | 81 | 265 | 11.0 | 20.0 | 0.00 | 0.00 | 0.00 | 42 | 1017.8 |
| 20260830133051 | 80 | 270 | 12.0 | 17.0 | 0.00 | 0.00 | 0.00 | 41 | 1017.8 |
| 20260830131603 | 80 | 242 | 10.0 | 17.0 | 0.00 | 0.00 | 0.00 | 40 | 1017.8 |